This is the latest recevied weather packets stored in our database for station/object K5OLV. If no packets are shown the sender has not sent any weather packets the latest 10 day(s).
| Time | Temp. | Humidity | Pressure | Rain* | Wind** | Luminosity | Snow |
|---|---|---|---|---|---|---|---|
| 1788017028 | 24.44° C | 87% | 1020 hPa | 0 mm | - | 249 W/m² | - |
| 1788016728 | 24.44° C | 87% | 1019.8 hPa | 0 mm | - | 253 W/m² | - |
| 1788016426 | 24.44° C | 87% | 1019.9 hPa | 0 mm | - | 229 W/m² | - |
| 1788016126 | 24.44° C | 87% | 1019.8 hPa | 0 mm | - | 260 W/m² | - |
| 1788015824 | 23.89° C | 88% | 1019.6 hPa | 0 mm | - | 291 W/m² | - |
| 1788015519 | 23.89° C | 88% | 1019.4 hPa | 0 mm | - | 325 W/m² | - |
| 1788015215 | 25° C | 86% | 1019.4 hPa | 0 mm | - | 265 W/m² | - |
| 1788014913 | 25° C | 87% | 1019.6 hPa | 0 mm | - | 298 W/m² | - |
| 1788014608 | 24.44° C | 88% | 1019.4 hPa | 0 mm | - | 471 W/m² | - |
| 1788014303 | 24.44° C | 88% | 1019.3 hPa | 0 mm | - | 272 W/m² | - |
| 1788013999 | 24.44° C | 88% | 1019.2 hPa | 0 mm | - | 261 W/m² | - |
| 1788013693 | 24.44° C | 88% | 1019.3 hPa | 0 mm | - | 209 W/m² | - |
| 1788013393 | 23.89° C | 90% | 1019.3 hPa | 0 mm | - | 318 W/m² | - |
| 1788013092 | 23.33° C | 91% | 1019.3 hPa | 0 mm | - | 218 W/m² | - |
| 1788012791 | 23.33° C | 90% | 1019.2 hPa | 0 mm | - | 133 W/m² | - |
| 1788012487 | 23.33° C | 91% | 1018.9 hPa | 0 mm | - | 151 W/m² | - |
| 1788012186 | 23.33° C | 91% | 1018.8 hPa | 0 mm | - | 356 W/m² | - |
| 1788011885 | 23.33° C | 91% | 1018.9 hPa | 0 mm | - | 245 W/m² | - |
| 1788011584 | 23.33° C | 91% | 1019 hPa | 0 mm | - | 167 W/m² | - |
| 1788011280 | 23.33° C | 90% | 1018.8 hPa | 0 mm | - | 179 W/m² | - |
| 1788010979 | 23.33° C | 90% | 1018.9 hPa | 0 mm | - | 150 W/m² | - |
| 1788010674 | 23.33° C | 91% | 1018.9 hPa | 0 mm | - | 149 W/m² | - |
| 1788010372 | 22.78° C | 91% | 1018.9 hPa | 0 mm | - | 266 W/m² | - |
| 1788010067 | 23.33° C | 91% | 1018.8 hPa | 0 mm | - | 204 W/m² | - |
| 1788009763 | 23.33° C | 91% | 1018.7 hPa | 0 mm | - | 153 W/m² | - |
* Rain latest hour (hover to see other rain measurements)
** Current wind speed in m/s (hover to see current wind gust speed)